Time,TemperatureF,DewpointF,PressureIn,WindDirection,WindDirectionDegrees,WindSpeedMPH,WindSpeedGustMPH,Humidity,HourlyPrecipIn,Conditions,Clouds,dailyrainin,SoftwareType,DateUTC
2013-02-10 00:00:00,28.4,27.4,29.96,SE,130,3.0,5.0,96,0.00,,,0.00,VWS V14.01,2013-02-10 06:00:00,
2013-02-10 00:05:00,28.4,27.4,29.96,SE,136,4.0,7.0,96,0.00,,,0.00,VWS V14.01,2013-02-10 06:05:00,
2013-02-10 00:10:00,28.4,27.4,29.96,ESE,119,4.0,7.0,96,0.00,,,0.00,VWS V14.01,2013-02-10 06:10:00,
2013-02-10 00:15:00,28.4,27.4,29.96,SE,134,3.0,7.0,96,0.00,,,0.00,VWS V14.01,2013-02-10 06:15:00,
2013-02-10 00:20:00,28.4,27.4,29.96,ESE,115,3.0,7.0,96,0.00,,,0.00,VWS V14.01,2013-02-10 06:20:00,
2013-02-10 00:25:00,28.4,27.1,29.96,SE,133,5.0,7.0,95,0.00,,,0.00,VWS V14.01,2013-02-10 06:25:00,
2013-02-10 00:30:00,28.4,27.1,29.95,SE,131,2.0,6.0,95,0.00,,,0.00,VWS V14.01,2013-02-10 06:30:00,
2013-02-10 00:35:00,28.4,27.1,29.95,SE,129,5.0,8.0,95,0.00,,OVC005,0.00,VWS V14.01,2013-02-10 06:35:00,
2013-02-10 00:40:00,28.5,27.2,29.95,SE,139,4.0,8.0,95,0.00,,OVC005,0.00,VWS V14.01,2013-02-10 06:40:00,
2013-02-10 00:45:00,28.5,27.2,29.95,SE,144,2.0,8.0,95,0.00,,OVC005,0.00,VWS V14.01,2013-02-10 06:45:00,
2013-02-10 00:50:00,28.5,27.2,29.95,SE,145,7.0,8.0,95,0.00,,OVC005,0.00,VWS V14.01,2013-02-10 06:50:00,
2013-02-10 00:55:00,28.5,27.2,29.95,SE,145,2.0,8.0,95,0.00,,OVC005,0.00,VWS V14.01,2013-02-10 06:55:00,
2013-02-10 01:00:00,28.4,26.9,29.95,SE,124,4.0,4.0,94,0.00,,OVC005,0.00,VWS V14.01,2013-02-10 07:00:00,
2013-02-10 01:05:00,28.4,26.9,29.95,SE,131,4.0,9.0,94,0.00,,OVC003,0.00,VWS V14.01,2013-02-10 07:05:00,
2013-02-10 01:10:00,28.4,26.9,29.95,ESE,119,6.0,9.0,94,0.00,,OVC005,0.00,VWS V14.01,2013-02-10 07:10:00,
2013-02-10 01:15:00,28.4,26.9,29.95,SE,142,3.0,10.0,94,0.00,,OVC005,0.00,VWS V14.01,2013-02-10 07:15:00,
2013-02-10 01:20:00,28.4,26.9,29.95,SSE,162,9.0,10.0,94,0.00,,OVC005,0.00,VWS V14.01,2013-02-10 07:20:00,
2013-02-10 01:25:00,28.4,26.9,29.95,SSW,197,6.0,10.0,94,0.00,,OVC005,0.00,VWS V14.01,2013-02-10 07:25:00,
2013-02-10 01:30:00,28.4,26.6,29.94,SSE,153,3.0,6.0,93,0.00,,OVC005,0.00,VWS V14.01,2013-02-10 07:30:00,
2013-02-10 01:35:00,28.4,26.6,29.94,SE,138,3.0,6.0,93,0.00,,OVC005,0.00,VWS V14.01,2013-02-10 07:35:00,
2013-02-10 01:40:00,28.3,26.5,29.95,SE,131,2.0,6.0,93,0.00,,OVC005,0.00,VWS V14.01,2013-02-10 07:40:00,
2013-02-10 01:45:00,28.3,26.5,29.94,SSE,148,2.0,6.0,93,0.00,,OVC005,0.00,VWS V14.01,2013-02-10 07:45:00,
2013-02-10 01:50:00,28.3,26.5,29.94,SSE,155,1.0,8.0,93,0.00,,OVC007,0.00,VWS V14.01,2013-02-10 07:50:00,
2013-02-10 01:55:00,28.3,26.5,29.94,SE,146,2.0,8.0,93,0.00,,OVC007,0.00,VWS V14.01,2013-02-10 07:55:00,
2013-02-10 02:00:00,28.3,26.5,29.94,SSE,148,3.0,5.0,93,0.00,,OVC007,0.00,VWS V14.01,2013-02-10 08:00:00,
2013-02-10 02:05:00,28.2,26.4,29.94,ESE,116,3.0,7.0,93,0.00,,OVC005,0.00,VWS V14.01,2013-02-10 08:05:00,
2013-02-10 02:10:00,28.1,26.3,29.94,SE,125,3.0,8.0,93,0.00,,OVC007,0.00,VWS V14.01,2013-02-10 08:10:00,
2013-02-10 02:15:00,28.1,26.3,29.93,ESE,117,2.0,8.0,93,0.00,,OVC007,0.00,VWS V14.01,2013-02-10 08:15:00,
2013-02-10 02:20:00,28.0,26.2,29.93,SE,131,1.0,8.0,93,0.00,,OVC007,0.00,VWS V14.01,2013-02-10 08:20:00,
2013-02-10 02:25:00,28.0,26.2,29.93,SE,124,3.0,8.0,93,0.00,,OVC007,0.00,VWS V14.01,2013-02-10 08:25:00,
2013-02-10 02:30:00,27.9,25.9,29.92,ESE,117,5.0,6.0,92,0.00,,OVC007,0.00,VWS V14.01,2013-02-10 08:30:00,
2013-02-10 02:35:00,28.0,26.0,29.92,ESE,107,4.0,7.0,92,0.00,,OVC007,0.00,VWS V14.01,2013-02-10 08:35:00,
2013-02-10 02:40:00,27.9,25.9,29.92,ESE,118,4.0,7.0,92,0.00,,OVC007,0.00,VWS V14.01,2013-02-10 08:40:00,
2013-02-10 02:45:00,27.9,25.9,29.91,SE,133,5.0,9.0,92,0.00,,OVC007,0.00,VWS V14.01,2013-02-10 08:45:00,
2013-02-10 02:50:00,28.0,25.7,29.91,ESE,116,6.0,9.0,91,0.00,,OVC009,0.00,VWS V14.01,2013-02-10 08:50:00,
2013-02-10 02:55:00,27.9,25.6,29.91,ESE,103,5.0,9.0,91,0.00,,OVC009,0.00,VWS V14.01,2013-02-10 08:55:00,
2013-02-10 03:00:00,27.9,25.6,29.90,ESE,110,7.0,7.0,91,0.00,,OVC009,0.00,VWS V14.01,2013-02-10 09:00:00,
2013-02-10 03:05:00,27.9,25.6,29.90,ESE,111,5.0,9.0,91,0.00,,OVC007,0.00,VWS V14.01,2013-02-10 09:05:00,
2013-02-10 03:10:00,27.8,25.5,29.89,East,98,7.0,9.0,91,0.00,,OVC009,0.00,VWS V14.01,2013-02-10 09:10:00,
2013-02-10 03:15:00,27.8,25.5,29.88,ESE,102,7.0,9.0,91,0.00,,OVC009,0.00,VWS V14.01,2013-02-10 09:15:00,
2013-02-10 03:20:00,27.8,25.5,29.88,ESE,105,6.0,9.0,91,0.00,,OVC009,0.00,VWS V14.01,2013-02-10 09:20:00,
2013-02-10 03:25:00,27.8,25.5,29.87,ESE,108,5.0,10.0,91,0.00,,OVC009,0.00,VWS V14.01,2013-02-10 09:25:00,
2013-02-10 03:30:00,27.8,25.5,29.87,ESE,111,7.0,12.0,91,0.00,,OVC009,0.00,VWS V14.01,2013-02-10 09:30:00,
2013-02-10 03:35:00,27.8,25.5,29.86,ESE,102,6.0,12.0,91,0.00,,OVC011,0.00,VWS V14.01,2013-02-10 09:35:00,
2013-02-10 03:40:00,27.8,25.5,29.86,ESE,102,6.0,12.0,91,0.00,,OVC011,0.00,VWS V14.01,2013-02-10 09:40:00,
2013-02-10 03:45:00,27.8,25.5,29.86,ESE,110,9.0,12.0,91,0.00,,OVC011,0.00,VWS V14.01,2013-02-10 09:45:00,
2013-02-10 03:50:00,27.8,25.5,29.87,ESE,106,8.0,12.0,91,0.00,,OVC011,0.00,VWS V14.01,2013-02-10 09:50:00,
2013-02-10 03:55:00,27.8,25.2,29.86,ESE,109,6.0,12.0,90,0.00,,OVC011,0.00,VWS V14.01,2013-02-10 09:55:00,
2013-02-10 04:00:00,27.8,25.2,29.86,ESE,105,7.0,7.0,90,0.00,,OVC011,0.00,VWS V14.01,2013-02-10 10:00:00,
2013-02-10 04:05:00,27.7,25.2,29.85,ESE,103,6.0,12.0,90,0.00,,OVC011,0.00,VWS V14.01,2013-02-10 10:05:00,
2013-02-10 04:10:00,27.7,25.2,29.84,East,94,7.0,12.0,90,0.00,,OVC011,0.00,VWS V14.01,2013-02-10 10:10:00,
2013-02-10 04:15:00,27.6,25.1,29.85,ESE,105,7.0,12.0,90,0.00,,OVC011,0.00,VWS V14.01,2013-02-10 10:15:00,
2013-02-10 04:20:00,27.7,25.2,29.85,ESE,105,6.0,12.0,90,0.00,,OVC011,0.00,VWS V14.01,2013-02-10 10:20:00,
2013-02-10 04:25:00,27.6,25.1,29.85,East,101,7.0,12.0,90,0.00,,OVC011,0.00,VWS V14.01,2013-02-10 10:25:00,
2013-02-10 04:30:00,27.6,25.1,29.85,East,81,5.0,8.0,90,0.00,,OVC011,0.00,VWS V14.01,2013-02-10 10:30:00,
2013-02-10 04:35:00,27.6,25.1,29.84,East,101,7.0,14.0,90,0.00,,OVC013,0.00,VWS V14.01,2013-02-10 10:35:00,
2013-02-10 04:40:00,27.5,25.0,29.85,ESE,106,5.0,14.0,90,0.00,,OVC013,0.00,VWS V14.01,2013-02-10 10:40:00,
2013-02-10 04:45:00,27.5,25.0,29.85,East,96,7.0,14.0,90,0.00,,OVC013,0.00,VWS V14.01,2013-02-10 10:45:00,
2013-02-10 04:50:00,27.6,25.1,29.85,East,101,6.0,14.0,90,0.00,,OVC011,0.00,VWS V14.01,2013-02-10 10:50:00,
2013-02-10 04:55:00,27.6,25.1,29.85,ENE,74,8.0,14.0,90,0.00,,OVC011,0.00,VWS V14.01,2013-02-10 10:55:00,
2013-02-10 05:00:00,27.5,25.0,29.84,East,100,8.0,10.0,90,0.00,,OVC011,0.00,VWS V14.01,2013-02-10 11:00:00,
2013-02-10 05:05:00,27.5,25.0,29.84,East,89,9.0,10.0,90,0.00,,OVC011,0.00,VWS V14.01,2013-02-10 11:05:00,
2013-02-10 05:10:00,27.5,25.0,29.84,East,87,7.0,12.0,90,0.00,,OVC011,0.00,VWS V14.01,2013-02-10 11:10:00,
2013-02-10 05:15:00,27.4,24.9,29.83,ENE,74,6.0,12.0,90,0.00,,OVC011,0.00,VWS V14.01,2013-02-10 11:15:00,
2013-02-10 05:20:00,27.4,24.9,29.82,ENE,71,12.0,14.0,90,0.00,,OVC011,0.00,VWS V14.01,2013-02-10 11:20:00,
2013-02-10 05:25:00,27.2,24.9,29.81,East,89,12.0,14.0,91,0.00,,OVC011,0.00,VWS V14.01,2013-02-10 11:25:00,
2013-02-10 05:30:00,26.9,24.9,29.81,ESE,103,10.0,11.0,92,0.00,,OVC011,0.00,VWS V14.01,2013-02-10 11:30:00,
2013-02-10 05:35:00,26.7,25.0,29.82,ENE,60,9.0,11.0,93,0.00,,OVC011,0.00,VWS V14.01,2013-02-10 11:35:00,
2013-02-10 05:40:00,26.6,24.9,29.81,East,84,13.0,14.0,93,0.00,,OVC011,0.00,VWS V14.01,2013-02-10 11:40:00,
2013-02-10 05:45:00,26.5,25.0,29.80,East,83,7.0,14.0,94,0.00,,OVC011,0.00,VWS V14.01,2013-02-10 11:45:00,
2013-02-10 05:50:00,26.4,24.9,29.80,East,84,9.0,14.0,94,0.00,,,0.00,VWS V14.01,2013-02-10 11:50:00,
2013-02-10 05:55:00,26.3,25.1,29.79,ENE,72,11.0,14.0,95,0.00,,,0.00,VWS V14.01,2013-02-10 11:55:00,
2013-02-10 06:00:00,26.2,25.0,29.78,East,98,8.0,17.0,95,0.00,,,0.00,VWS V14.01,2013-02-10 12:00:00,
2013-02-10 06:05:00,26.2,25.0,29.77,East,79,13.0,17.0,95,0.00,,OVC011,0.00,VWS V14.01,2013-02-10 12:05:00,
2013-02-10 06:10:00,26.2,25.0,29.76,ESE,105,8.0,17.0,95,0.00,,,0.00,VWS V14.01,2013-02-10 12:10:00,
2013-02-10 06:15:00,26.1,24.9,29.76,ENE,76,6.0,17.0,95,0.00,,,0.00,VWS V14.01,2013-02-10 12:15:00,
2013-02-10 06:20:00,26.1,24.9,29.75,ENE,72,10.0,17.0,95,0.00,,OVC011,0.00,VWS V14.01,2013-02-10 12:20:00,
2013-02-10 06:25:00,26.0,24.8,29.74,ENE,67,14.0,17.0,95,0.00,,OVC011,0.00,VWS V14.01,2013-02-10 12:25:00,
2013-02-10 06:30:00,26.1,24.9,29.75,East,97,11.0,13.0,95,0.00,,OVC011,0.00,VWS V14.01,2013-02-10 12:30:00,
2013-02-10 06:35:00,26.1,24.9,29.76,East,81,11.0,13.0,95,0.00,,,0.00,VWS V14.01,2013-02-10 12:35:00,
2013-02-10 06:40:00,26.2,25.0,29.76,East,88,8.0,13.0,95,0.00,,,0.00,VWS V14.01,2013-02-10 12:40:00,
2013-02-10 06:45:00,26.3,25.1,29.77,East,98,7.0,13.0,95,0.00,,,0.00,VWS V14.01,2013-02-10 12:45:00,
2013-02-10 06:50:00,26.3,24.8,29.76,East,98,7.0,13.0,94,0.00,,OVC080,0.00,VWS V14.01,2013-02-10 12:50:00,
2013-02-10 06:55:00,26.4,24.9,29.76,East,94,8.0,13.0,94,0.00,,OVC080,0.00,VWS V14.01,2013-02-10 12:55:00,
2013-02-10 07:00:00,26.5,25.0,29.76,ENE,71,7.0,10.0,94,0.00,,OVC080,0.00,VWS V14.01,2013-02-10 13:00:00,
2013-02-10 07:05:00,26.5,25.0,29.75,ENE,72,9.0,11.0,94,0.00,,,0.00,VWS V14.01,2013-02-10 13:05:00,
2013-02-10 07:10:00,26.4,24.6,29.74,East,79,10.0,12.0,93,0.00,,OVC080,0.00,VWS V14.01,2013-02-10 13:10:00,
2013-02-10 07:14:00,26.5,24.8,29.74,ENE,75,11.0,15.0,93,0.00,,OVC080,0.00,VWS V14.01,2013-02-10 13:14:00,
2013-02-10 07:19:00,26.6,24.9,29.74,ENE,65,7.0,15.0,93,0.00,,OVC080,0.00,VWS V14.01,2013-02-10 13:19:00,
2013-02-10 07:24:00,26.6,24.9,29.73,East,91,12.0,16.0,93,0.00,,OVC080,0.00,VWS V14.01,2013-02-10 13:24:00,
2013-02-10 07:29:00,26.6,24.6,29.74,East,79,9.0,12.0,92,0.00,,OVC080,0.00,VWS V14.01,2013-02-10 13:29:00,
2013-02-10 07:34:00,26.6,24.6,29.74,ESE,113,6.0,12.0,92,0.00,,OVC010,0.00,VWS V14.01,2013-02-10 13:34:00,
2013-02-10 07:39:00,26.6,24.6,29.73,East,89,10.0,14.0,92,0.00,,OVC010,0.00,VWS V14.01,2013-02-10 13:39:00,
2013-02-10 07:44:00,26.6,24.6,29.73,ENE,74,10.0,15.0,92,0.00,,OVC010,0.00,VWS V14.01,2013-02-10 13:44:00,
2013-02-10 07:49:00,26.6,24.6,29.72,ENE,74,10.0,15.0,92,0.00,,OVC010,0.00,VWS V14.01,2013-02-10 13:49:00,
2013-02-10 07:54:00,26.6,24.6,29.72,East,82,10.0,15.0,92,0.00,,OVC010,0.00,VWS V14.01,2013-02-10 13:54:00,
2013-02-10 07:59:00,26.6,24.6,29.71,ENE,71,11.0,14.0,92,0.00,,OVC010,0.00,VWS V14.01,2013-02-10 13:59:00,
2013-02-10 08:04:00,26.6,24.6,29.71,East,82,9.0,15.0,92,0.00,,OVC070,0.00,VWS V14.01,2013-02-10 14:04:00,
2013-02-10 08:09:00,26.6,24.6,29.70,ENE,68,8.0,17.0,92,0.00,,OVC010,0.00,VWS V14.01,2013-02-10 14:09:00,
2013-02-10 08:14:00,26.6,24.6,29.70,ENE,68,8.0,17.0,92,0.00,,OVC010,0.00,VWS V14.01,2013-02-10 14:14:00,
2013-02-10 08:19:00,26.6,24.6,29.70,ENE,68,10.0,17.0,92,0.00,,OVC010,0.00,VWS V14.01,2013-02-10 14:19:00,
2013-02-10 08:24:00,26.7,24.7,29.70,East,82,10.0,17.0,92,0.00,,OVC010,0.00,VWS V14.01,2013-02-10 14:24:00,
2013-02-10 08:29:00,26.7,24.7,29.70,ENE,77,10.0,13.0,92,0.00,,OVC010,0.00,VWS V14.01,2013-02-10 14:29:00,
2013-02-10 08:34:00,26.7,24.7,29.70,East,96,11.0,13.0,92,0.00,,OVC010,0.00,VWS V14.01,2013-02-10 14:34:00,
2013-02-10 08:39:00,26.7,24.7,29.71,ENE,63,14.0,15.0,92,0.00,,OVC010,0.00,VWS V14.01,2013-02-10 14:39:00,
2013-02-10 08:44:00,26.7,24.7,29.70,ENE,72,9.0,16.0,92,0.00,,OVC010,0.00,VWS V14.01,2013-02-10 14:44:00,
2013-02-10 08:49:00,26.8,24.8,29.70,ENE,58,11.0,16.0,92,0.00,,OVC010,0.00,VWS V14.01,2013-02-10 14:49:00,
2013-02-10 08:54:00,26.8,24.8,29.68,ENE,65,13.0,17.0,92,0.00,,OVC010,0.00,VWS V14.01,2013-02-10 14:54:00,
2013-02-10 08:59:00,26.8,24.8,29.67,ENE,68,14.0,17.0,92,0.00,,OVC010,0.00,VWS V14.01,2013-02-10 14:59:00,
2013-02-10 09:04:00,26.8,24.8,29.67,East,93,13.0,18.0,92,0.00,,OVC010,0.00,VWS V14.01,2013-02-10 15:04:00,
2013-02-10 09:09:00,26.8,25.0,29.66,ENE,74,15.0,18.0,93,0.00,,OVC010,0.00,VWS V14.01,2013-02-10 15:09:00,
2013-02-10 09:14:00,26.9,25.1,29.66,East,96,11.0,18.0,93,0.00,,OVC010,0.00,VWS V14.01,2013-02-10 15:14:00,
2013-02-10 09:19:00,26.9,25.1,29.65,ENE,63,13.0,18.0,93,0.00,,OVC010,0.00,VWS V14.01,2013-02-10 15:19:00,
2013-02-10 09:24:00,27.0,25.2,29.64,ENE,78,13.0,18.0,93,0.00,,OVC010,0.00,VWS V14.01,2013-02-10 15:24:00,
2013-02-10 09:29:00,27.1,25.4,29.64,ENE,72,14.0,17.0,93,0.00,,OVC010,0.00,VWS V14.01,2013-02-10 15:29:00,
2013-02-10 09:34:00,27.1,25.4,29.64,East,79,19.0,19.0,93,0.00,,OVC010,0.00,VWS V14.01,2013-02-10 15:34:00,
2013-02-10 09:39:00,27.2,25.5,29.64,ENE,71,13.0,19.0,93,0.00,,OVC010,0.00,VWS V14.01,2013-02-10 15:39:00,
2013-02-10 09:44:00,27.2,25.5,29.65,ENE,70,10.0,19.0,93,0.00,,OVC010,0.00,VWS V14.01,2013-02-10 15:44:00,
2013-02-10 09:49:00,27.3,25.5,29.64,East,89,12.0,19.0,93,0.00,,OVC038,0.00,VWS V14.01,2013-02-10 15:49:00,
2013-02-10 09:54:00,27.3,25.5,29.64,ENE,65,10.0,19.0,93,0.00,,OVC038,0.00,VWS V14.01,2013-02-10 15:54:00,
2013-02-10 09:59:00,27.4,25.4,29.63,East,88,9.0,13.0,92,0.00,,OVC038,0.00,VWS V14.01,2013-02-10 15:59:00,
2013-02-10 10:04:00,27.5,25.5,29.63,ESE,102,12.0,15.0,92,0.00,,OVC010,0.00,VWS V14.01,2013-02-10 16:04:00,
2013-02-10 10:09:00,27.5,25.5,29.62,ENE,72,10.0,15.0,92,0.00,,OVC038,0.00,VWS V14.01,2013-02-10 16:09:00,
2013-02-10 10:14:00,27.6,25.6,29.61,East,89,11.0,17.0,92,0.00,,OVC038,0.00,VWS V14.01,2013-02-10 16:14:00,
2013-02-10 10:19:00,27.6,25.8,29.61,East,79,13.0,17.0,93,0.00,,OVC038,0.00,VWS V14.01,2013-02-10 16:19:00,
2013-02-10 10:24:00,27.6,25.8,29.60,NE,56,7.0,20.0,93,0.00,,OVC038,0.00,VWS V14.01,2013-02-10 16:24:00,
2013-02-10 10:29:00,27.6,25.8,29.59,ENE,67,9.0,13.0,93,0.00,,OVC038,0.00,VWS V14.01,2013-02-10 16:29:00,
2013-02-10 10:34:00,27.6,26.1,29.59,ENE,63,9.0,16.0,94,0.00,,OVC010,0.00,VWS V14.01,2013-02-10 16:34:00,
2013-02-10 10:39:00,27.7,26.2,29.59,ENE,65,11.0,16.0,94,0.00,,OVC010,0.00,VWS V14.01,2013-02-10 16:39:00,
2013-02-10 10:44:00,27.7,26.2,29.58,ENE,59,13.0,16.0,94,0.00,,OVC010,0.00,VWS V14.01,2013-02-10 16:44:00,
2013-02-10 10:49:00,27.8,26.3,29.58,NE,56,6.0,16.0,94,0.00,,,0.00,VWS V14.01,2013-02-10 16:49:00,
2013-02-10 10:54:00,27.9,26.4,29.58,ENE,78,6.0,16.0,94,0.00,,,0.00,VWS V14.01,2013-02-10 16:54:00,
2013-02-10 10:59:00,28.0,26.5,29.58,ENE,65,5.0,10.0,94,0.00,,,0.00,VWS V14.01,2013-02-10 16:59:00,
2013-02-10 11:04:00,28.0,26.5,29.58,NE,56,6.0,10.0,94,0.00,,OVC035,0.00,VWS V14.01,2013-02-10 17:04:00,
2013-02-10 11:09:00,28.1,26.6,29.57,ENE,71,6.0,12.0,94,0.00,,,0.00,VWS V14.01,2013-02-10 17:09:00,
2013-02-10 11:14:00,28.2,26.7,29.57,ENE,70,4.0,12.0,94,0.00,,,0.00,VWS V14.01,2013-02-10 17:14:00,
2013-02-10 11:19:00,28.3,27.0,29.55,NE,52,4.0,12.0,95,0.00,,OVC010,0.00,VWS V14.01,2013-02-10 17:19:00,
2013-02-10 11:24:00,28.3,27.0,29.53,ENE,59,7.0,12.0,95,0.00,,OVC010,0.00,VWS V14.01,2013-02-10 17:24:00,
2013-02-10 11:29:00,28.4,27.1,29.51,NE,41,7.0,9.0,95,0.00,,OVC010,0.00,VWS V14.01,2013-02-10 17:29:00,
2013-02-10 11:34:00,28.5,27.2,29.51,ENE,58,6.0,14.0,95,0.00,,OVC014,0.00,VWS V14.01,2013-02-10 17:34:00,
2013-02-10 11:39:00,28.7,27.5,29.50,NE,41,11.0,14.0,95,0.00,,OVC014,0.00,VWS V14.01,2013-02-10 17:39:00,
2013-02-10 11:44:00,28.7,27.5,29.49,NE,51,6.0,14.0,95,0.00,,OVC014,0.00,VWS V14.01,2013-02-10 17:44:00,
2013-02-10 11:49:00,28.8,27.5,29.49,NE,52,6.0,14.0,95,0.00,,,0.00,VWS V14.01,2013-02-10 17:49:00,
2013-02-10 11:54:00,28.9,27.6,29.48,ENE,74,5.0,5.0,95,0.00,,,0.00,VWS V14.01,2013-02-10 17:54:00,
2013-02-10 11:59:00,29.0,27.8,29.48,NE,37,4.0,6.0,95,0.00,,,0.00,VWS V14.01,2013-02-10 17:59:00,
2013-02-10 12:04:00,29.1,27.9,29.48,ENE,58,4.0,10.0,95,0.00,,,0.00,VWS V14.01,2013-02-10 18:04:00,
2013-02-10 12:09:00,29.2,28.0,29.48,ENE,58,6.0,10.0,95,0.00,,,0.00,VWS V14.01,2013-02-10 18:09:00,
2013-02-10 12:14:00,29.2,28.0,29.49,East,99,5.0,11.0,95,0.00,,,0.00,VWS V14.01,2013-02-10 18:14:00,
2013-02-10 12:19:00,29.4,28.4,29.50,East,98,0.0,11.0,96,0.00,,,0.00,VWS V14.01,2013-02-10 18:19:00,
2013-02-10 12:24:00,29.5,28.2,29.50,ENE,67,4.0,11.0,95,0.00,,,0.00,VWS V14.01,2013-02-10 18:24:00,
2013-02-10 12:29:00,29.6,28.4,29.50,East,82,4.0,6.0,95,0.00,,,0.00,VWS V14.01,2013-02-10 18:29:00,
2013-02-10 12:34:00,29.6,28.6,29.50,NE,56,4.0,7.0,96,0.00,,-RA,0.00,VWS V14.01,2013-02-10 18:34:00,
2013-02-10 12:39:00,29.7,28.7,29.49,ENE,67,4.0,7.0,96,0.00,,-RA,0.00,VWS V14.01,2013-02-10 18:39:00,
2013-02-10 12:44:00,29.7,28.7,29.47,ENE,65,3.0,7.0,96,0.00,,-RA,0.00,VWS V14.01,2013-02-10 18:44:00,
2013-02-10 12:49:00,29.7,28.7,29.46,ENE,65,5.0,7.0,96,0.00,,-RA,0.00,VWS V14.01,2013-02-10 18:49:00,
2013-02-10 12:54:00,29.8,28.8,29.46,ENE,77,5.0,7.0,96,0.00,,-RA,0.00,VWS V14.01,2013-02-10 18:54:00,
2013-02-10 12:59:00,29.9,28.9,29.46,ENE,74,7.0,7.0,96,0.00,,-RA,0.00,VWS V14.01,2013-02-10 18:59:00,
2013-02-10 13:04:00,30.0,29.0,29.45,NE,49,4.0,7.0,96,0.00,,OVC025,0.00,VWS V14.01,2013-02-10 19:04:00,
2013-02-10 13:09:00,29.9,28.9,29.44,ENE,68,4.0,7.0,96,0.00,,-RA,0.00,VWS V14.01,2013-02-10 19:09:00,
2013-02-10 13:14:00,29.8,28.8,29.45,NE,47,3.0,7.0,96,0.00,,-RA,0.00,VWS V14.01,2013-02-10 19:14:00,
2013-02-10 13:19:00,29.8,28.8,29.45,NE,49,4.0,7.0,96,0.00,,-RA,0.00,VWS V14.01,2013-02-10 19:19:00,
2013-02-10 13:24:00,29.8,29.0,29.44,NE,56,4.0,7.0,97,0.00,,-RA,0.00,VWS V14.01,2013-02-10 19:24:00,
2013-02-10 13:29:00,29.9,29.1,29.44,NE,56,4.0,5.0,97,0.00,,-RA,0.00,VWS V14.01,2013-02-10 19:29:00,
2013-02-10 13:34:00,30.0,29.2,29.44,ENE,57,5.0,6.0,97,0.00,,-RA,0.00,VWS V14.01,2013-02-10 19:34:00,
2013-02-10 13:39:00,30.0,29.2,29.44,ENE,60,4.0,6.0,97,0.00,,-RA,0.00,VWS V14.01,2013-02-10 19:39:00,
2013-02-10 13:44:00,30.2,29.5,29.43,ENE,61,5.0,6.0,97,0.00,,-RA,0.00,VWS V14.01,2013-02-10 19:44:00,
2013-02-10 13:49:00,30.2,29.5,29.43,ENE,63,4.0,6.0,97,0.00,,-RA,0.00,VWS V14.01,2013-02-10 19:49:00,
2013-02-10 13:54:00,30.4,29.6,29.42,NE,52,3.0,8.0,97,0.00,,-RA,0.00,VWS V14.01,2013-02-10 19:54:00,
2013-02-10 13:59:00,30.5,29.8,29.41,ENE,58,5.0,6.0,97,0.00,,-RA,0.00,VWS V14.01,2013-02-10 19:59:00,
2013-02-10 14:04:00,30.7,30.0,29.41,ENE,58,4.0,6.0,97,0.00,,-RA,0.00,VWS V14.01,2013-02-10 20:04:00,
2013-02-10 14:09:00,30.9,30.1,29.41,ENE,58,5.0,7.0,97,0.00,,-RA,0.00,VWS V14.01,2013-02-10 20:09:00,
2013-02-10 14:14:00,31.0,30.2,29.40,ENE,57,2.0,8.0,97,0.00,,-RA,0.00,VWS V14.01,2013-02-10 20:14:00,
2013-02-10 14:19:00,31.0,30.2,29.40,ENE,74,5.0,8.0,97,0.00,,-RA,0.00,VWS V14.01,2013-02-10 20:19:00,
2013-02-10 14:24:00,31.1,30.4,29.40,ENE,58,3.0,8.0,97,0.00,,-RA,0.00,VWS V14.01,2013-02-10 20:24:00,
2013-02-10 14:29:00,31.3,30.5,29.40,ENE,58,2.0,7.0,97,0.00,,-RA,0.00,VWS V14.01,2013-02-10 20:29:00,
2013-02-10 14:34:00,31.4,30.6,29.39,NE,51,3.0,9.0,97,0.00,,-RA,0.00,VWS V14.01,2013-02-10 20:34:00,
2013-02-10 14:39:00,31.5,30.8,29.39,ENE,68,4.0,9.0,97,0.00,,-RA,0.00,VWS V14.01,2013-02-10 20:39:00,
2013-02-10 14:44:00,31.6,30.9,29.38,ENE,74,7.0,9.0,97,0.00,,-RA,0.00,VWS V14.01,2013-02-10 20:44:00,
2013-02-10 14:49:00,31.7,31.0,29.39,ENE,70,4.0,10.0,97,0.00,,-RA,0.00,VWS V14.01,2013-02-10 20:49:00,
2013-02-10 14:54:00,31.8,31.0,29.38,ENE,78,5.0,10.0,97,0.00,,-RA,0.00,VWS V14.01,2013-02-10 20:54:00,
2013-02-10 14:59:00,31.8,31.0,29.39,ENE,76,6.0,6.0,97,0.00,,-RA,0.00,VWS V14.01,2013-02-10 20:59:00,
2013-02-10 15:04:00,31.8,31.0,29.38,ENE,60,5.0,7.0,97,0.00,,-RA,0.00,VWS V14.01,2013-02-10 21:04:00,
2013-02-10 15:09:00,31.8,31.0,29.38,NE,56,4.0,7.0,97,0.00,,-RA,0.00,VWS V14.01,2013-02-10 21:09:00,
2013-02-10 15:14:00,31.7,31.0,29.38,NE,53,3.0,8.0,97,0.00,,-RA,0.00,VWS V14.01,2013-02-10 21:14:00,
2013-02-10 15:19:00,31.7,31.0,29.38,ENE,58,5.0,8.0,97,0.00,,-RA,0.00,VWS V14.01,2013-02-10 21:19:00,
2013-02-10 15:24:00,31.7,31.0,29.37,NE,47,4.0,8.0,97,0.00,,-RA,0.00,VWS V14.01,2013-02-10 21:24:00,
2013-02-10 15:29:00,31.7,31.0,29.37,ENE,57,4.0,4.0,97,0.00,,-RA,0.00,VWS V14.01,2013-02-10 21:29:00,
2013-02-10 15:34:00,31.6,30.9,29.37,NE,48,3.0,6.0,97,0.00,,-RA,0.00,VWS V14.01,2013-02-10 21:34:00,
2013-02-10 15:39:00,31.6,30.9,29.37,ENE,65,5.0,8.0,97,0.00,,-RA,0.00,VWS V14.01,2013-02-10 21:39:00,
2013-02-10 15:44:00,31.5,30.8,29.37,ENE,63,5.0,9.0,97,0.00,,-RA,0.00,VWS V14.01,2013-02-10 21:44:00,
2013-02-10 15:49:00,31.5,30.8,29.37,NE,49,4.0,9.0,97,0.00,,-RA,0.00,VWS V14.01,2013-02-10 21:49:00,
2013-02-10 15:54:00,31.5,31.0,29.36,ENE,70,7.0,9.0,98,0.00,,-RA,0.00,VWS V14.01,2013-02-10 21:54:00,
2013-02-10 15:59:00,31.5,31.0,29.36,NE,54,4.0,9.0,98,0.00,,-RA,0.00,VWS V14.01,2013-02-10 21:59:00,
2013-02-10 16:04:00,31.5,31.0,29.36,ENE,61,3.0,10.0,98,0.00,,-RA,0.00,VWS V14.01,2013-02-10 22:04:00,
2013-02-10 16:09:00,31.5,31.0,29.36,NE,43,3.0,10.0,98,0.00,,-RA,0.00,VWS V14.01,2013-02-10 22:09:00,
2013-02-10 16:14:00,31.4,30.9,29.36,NE,47,4.0,10.0,98,0.00,,-RA,0.00,VWS V14.01,2013-02-10 22:14:00,
2013-02-10 16:19:00,31.5,31.0,29.35,NE,53,4.0,10.0,98,0.00,,-RA,0.00,VWS V14.01,2013-02-10 22:19:00,
2013-02-10 16:24:00,31.5,31.0,29.35,NE,48,6.0,10.0,98,0.00,,-RA,0.00,VWS V14.01,2013-02-10 22:24:00,
2013-02-10 16:29:00,31.5,31.0,29.35,NE,47,3.0,5.0,98,0.00,,-RA,0.00,VWS V14.01,2013-02-10 22:29:00,
2013-02-10 16:34:00,31.5,31.0,29.35,NE,47,4.0,8.0,98,0.00,,OVC013,0.00,VWS V14.01,2013-02-10 22:34:00,
2013-02-10 16:39:00,31.6,31.1,29.35,NE,51,3.0,8.0,98,0.00,,OVC013,0.00,VWS V14.01,2013-02-10 22:39:00,
2013-02-10 16:44:00,31.6,31.1,29.35,ENE,63,5.0,8.0,98,0.00,,OVC013,0.00,VWS V14.01,2013-02-10 22:44:00,
2013-02-10 16:49:00,31.6,31.1,29.35,NE,43,5.0,8.0,98,0.00,,,0.00,VWS V14.01,2013-02-10 22:49:00,
2013-02-10 16:54:00,31.6,31.1,29.35,ENE,58,4.0,8.0,98,0.00,,,0.00,VWS V14.01,2013-02-10 22:54:00,
2013-02-10 16:59:00,31.6,31.1,29.34,ENE,61,3.0,5.0,98,0.00,,,0.00,VWS V14.01,2013-02-10 22:59:00,
2013-02-10 17:04:00,31.6,31.1,29.34,ENE,77,3.0,6.0,98,0.00,,-RA,0.00,VWS V14.01,2013-02-10 23:04:00,
2013-02-10 17:09:00,31.7,31.2,29.34,ENE,60,3.0,6.0,98,0.00,,,0.00,VWS V14.01,2013-02-10 23:09:00,
2013-02-10 17:14:00,31.7,31.2,29.34,ENE,64,5.0,6.0,98,0.00,,,0.00,VWS V14.01,2013-02-10 23:14:00,
2013-02-10 17:19:00,31.7,31.2,29.34,NE,49,4.0,6.0,98,0.00,,,0.00,VWS V14.01,2013-02-10 23:19:00,
2013-02-10 17:24:00,31.7,31.2,29.34,ENE,68,4.0,6.0,98,0.00,,,0.00,VWS V14.01,2013-02-10 23:24:00,
2013-02-10 17:29:00,31.7,31.2,29.34,NE,51,5.0,7.0,98,0.00,,,0.00,VWS V14.01,2013-02-10 23:29:00,
2013-02-10 17:34:00,31.6,31.1,29.34,NE,46,5.0,7.0,98,0.00,,OVC013,0.00,VWS V14.01,2013-02-10 23:34:00,
2013-02-10 17:39:00,31.6,31.1,29.34,NE,44,4.0,7.0,98,0.00,,OVC013,0.00,VWS V14.01,2013-02-10 23:39:00,
2013-02-10 17:44:00,31.6,31.1,29.34,NE,41,5.0,7.0,98,0.00,,OVC013,0.00,VWS V14.01,2013-02-10 23:44:00,
2013-02-10 17:49:00,31.6,31.1,29.34,NE,48,4.0,7.0,98,0.00,,OVC015,0.00,VWS V14.01,2013-02-10 23:49:00,
2013-02-10 17:54:00,31.6,31.1,29.34,NE,44,4.0,7.0,98,0.00,,OVC015,0.00,VWS V14.01,2013-02-10 23:54:00,
2013-02-10 17:59:00,31.5,31.0,29.34,NE,44,5.0,7.0,98,0.00,,OVC015,0.00,VWS V14.01,2013-02-10 23:59:00,
2013-02-10 18:04:00,31.3,30.8,29.34,NE,37,6.0,9.0,98,0.00,,OVC013,0.00,VWS V14.01,2013-02-11 00:04:00,
2013-02-10 18:09:00,31.1,30.4,29.34,ENE,58,6.0,9.0,97,0.00,,OVC013,0.00,VWS V14.01,2013-02-11 00:09:00,
2013-02-10 18:14:00,30.8,30.0,29.34,NE,44,4.0,9.0,97,0.00,,OVC013,0.00,VWS V14.01,2013-02-11 00:14:00,
2013-02-10 18:19:00,30.6,29.9,29.33,NE,43,5.0,9.0,97,0.00,,OVC013,0.00,VWS V14.01,2013-02-11 00:19:00,
2013-02-10 18:24:00,30.5,30.0,29.33,NE,56,4.0,9.0,98,0.00,,OVC013,0.00,VWS V14.01,2013-02-11 00:24:00,
2013-02-10 18:29:00,30.4,29.9,29.33,NE,45,5.0,6.0,98,0.00,,OVC013,0.00,VWS V14.01,2013-02-11 00:29:00,
2013-02-10 18:34:00,30.4,29.9,29.33,NE,41,4.0,7.0,98,0.00,,OVC011,0.00,VWS V14.01,2013-02-11 00:34:00,
2013-02-10 18:39:00,30.4,29.9,29.33,NE,39,5.0,8.0,98,0.00,,OVC011,0.00,VWS V14.01,2013-02-11 00:39:00,
2013-02-10 18:44:00,30.4,29.9,29.33,NE,43,4.0,8.0,98,0.00,,OVC011,0.00,VWS V14.01,2013-02-11 00:44:00,
2013-02-10 18:49:00,30.3,29.8,29.33,NE,44,5.0,8.0,98,0.00,,OVC011,0.00,VWS V14.01,2013-02-11 00:49:00,
2013-02-10 18:54:00,30.3,29.8,29.33,NE,50,4.0,8.0,98,0.00,,OVC011,0.00,VWS V14.01,2013-02-11 00:54:00,
2013-02-10 18:59:00,30.2,29.7,29.33,NE,52,6.0,7.0,98,0.00,,OVC011,0.00,VWS V14.01,2013-02-11 00:59:00,
2013-02-10 19:04:00,30.2,29.7,29.33,NE,50,5.0,7.0,98,0.00,,OVC013,0.00,VWS V14.01,2013-02-11 01:04:00,
2013-02-10 19:09:00,30.2,29.7,29.33,ENE,58,5.0,7.0,98,0.00,,OVC011,0.00,VWS V14.01,2013-02-11 01:09:00,
2013-02-10 19:14:00,30.1,29.6,29.32,NE,50,6.0,7.0,98,0.00,,OVC011,0.00,VWS V14.01,2013-02-11 01:14:00,
2013-02-10 19:19:00,30.1,29.6,29.32,NE,56,5.0,8.0,98,0.00,,OVC011,0.00,VWS V14.01,2013-02-11 01:19:00,
2013-02-10 19:24:00,30.0,29.5,29.32,NE,56,7.0,8.0,98,0.00,,OVC011,0.00,VWS V14.01,2013-02-11 01:24:00,
2013-02-10 19:29:00,30.0,29.5,29.32,NE,56,5.0,9.0,98,0.00,,OVC011,0.00,VWS V14.01,2013-02-11 01:29:00,
2013-02-10 19:34:00,30.0,29.5,29.32,NE,41,5.0,9.0,98,0.00,,OVC011,0.00,VWS V14.01,2013-02-11 01:34:00,
2013-02-10 19:39:00,29.9,29.4,29.32,NE,40,3.0,9.0,98,0.00,,OVC011,0.00,VWS V14.01,2013-02-11 01:39:00,
2013-02-10 19:44:00,29.9,29.4,29.32,NE,54,6.0,9.0,98,0.00,,OVC011,0.00,VWS V14.01,2013-02-11 01:44:00,
2013-02-10 19:49:00,29.9,29.4,29.32,NE,46,5.0,9.0,98,0.00,,OVC011,0.00,VWS V14.01,2013-02-11 01:49:00,
2013-02-10 19:54:00,29.8,29.3,29.32,NE,56,4.0,9.0,98,0.00,,OVC011,0.00,VWS V14.01,2013-02-11 01:54:00,
2013-02-10 19:59:00,29.8,29.3,29.32,ENE,61,4.0,5.0,98,0.00,,OVC011,0.00,VWS V14.01,2013-02-11 01:59:00,
2013-02-10 20:04:00,29.8,29.3,29.31,NE,49,4.0,7.0,98,0.00,,OVC011,0.00,VWS V14.01,2013-02-11 02:04:00,
2013-02-10 20:09:00,29.7,29.2,29.31,NE,39,6.0,8.0,98,0.00,,OVC011,0.00,VWS V14.01,2013-02-11 02:09:00,
2013-02-10 20:14:00,29.7,29.2,29.31,NE,50,5.0,8.0,98,0.00,,OVC011,0.00,VWS V14.01,2013-02-11 02:14:00,
2013-02-10 20:19:00,29.6,29.1,29.31,NE,48,4.0,8.0,98,0.00,,OVC011,0.00,VWS V14.01,2013-02-11 02:19:00,
2013-02-10 20:24:00,29.6,29.1,29.31,NE,34,4.0,9.0,98,0.00,,OVC011,0.00,VWS V14.01,2013-02-11 02:24:00,
2013-02-10 20:29:00,29.6,29.1,29.31,NE,56,3.0,6.0,98,0.00,,OVC011,0.00,VWS V14.01,2013-02-11 02:29:00,
2013-02-10 20:34:00,29.6,29.1,29.31,NE,56,6.0,9.0,98,0.00,,OVC006,0.00,VWS V14.01,2013-02-11 02:34:00,
2013-02-10 20:39:00,29.6,29.1,29.31,NE,46,5.0,9.0,98,0.00,,OVC006,0.00,VWS V14.01,2013-02-11 02:39:00,
2013-02-10 20:44:00,29.6,29.1,29.31,NE,40,4.0,9.0,98,0.00,,OVC006,0.00,VWS V14.01,2013-02-11 02:44:00,
2013-02-10 20:49:00,29.6,29.1,29.31,NE,46,4.0,9.0,98,0.00,,OVC006,0.00,VWS V14.01,2013-02-11 02:49:00,
2013-02-10 20:54:00,29.6,29.1,29.31,NE,46,3.0,9.0,98,0.00,,OVC006,0.00,VWS V14.01,2013-02-11 02:54:00,
2013-02-10 20:59:00,29.6,29.1,29.31,NE,43,2.0,6.0,98,0.00,,OVC006,0.00,VWS V14.01,2013-02-11 02:59:00,
2013-02-10 21:04:00,29.6,29.1,29.31,NE,48,4.0,6.0,98,0.00,,OVC006,0.00,VWS V14.01,2013-02-11 03:04:00,
2013-02-10 21:09:00,29.5,29.0,29.30,NE,46,5.0,7.0,98,0.00,,OVC006,0.00,VWS V14.01,2013-02-11 03:09:00,
2013-02-10 21:14:00,29.5,29.0,29.30,NNE,23,1.0,7.0,98,0.00,,OVC006,0.00,VWS V14.01,2013-02-11 03:14:00,
2013-02-10 21:19:00,29.5,29.0,29.31,NE,46,2.0,7.0,98,0.00,,OVC006,0.00,VWS V14.01,2013-02-11 03:19:00,
2013-02-10 21:24:00,29.5,29.0,29.31,NE,44,3.0,7.0,98,0.00,,OVC006,0.00,VWS V14.01,2013-02-11 03:24:00,
2013-02-10 21:29:00,29.5,29.0,29.30,NE,50,3.0,5.0,98,0.00,,OVC006,0.00,VWS V14.01,2013-02-11 03:29:00,
2013-02-10 21:34:00,29.5,29.0,29.30,NE,56,2.0,6.0,98,0.00,,OVC004,0.00,VWS V14.01,2013-02-11 03:34:00,
2013-02-10 21:39:00,29.5,29.0,29.30,NE,48,1.0,8.0,98,0.00,,OVC004,0.00,VWS V14.01,2013-02-11 03:39:00,
2013-02-10 21:44:00,29.5,29.0,29.30,NE,44,1.0,8.0,98,0.00,,OVC004,0.00,VWS V14.01,2013-02-11 03:44:00,
2013-02-10 21:49:00,29.5,29.0,29.30,NE,40,1.0,8.0,98,0.00,,OVC004,0.00,VWS V14.01,2013-02-11 03:49:00,
2013-02-10 21:54:00,29.5,29.0,29.30,NE,44,1.0,8.0,98,0.00,,OVC004,0.00,VWS V14.01,2013-02-11 03:54:00,
2013-02-10 21:59:00,29.5,29.0,29.31,WNW,295,1.0,3.0,98,0.00,,OVC004,0.00,VWS V14.01,2013-02-11 03:59:00,
2013-02-10 22:04:00,29.5,29.0,29.30,NE,48,2.0,4.0,98,0.00,,OVC004,0.00,VWS V14.01,2013-02-11 04:04:00,
2013-02-10 22:09:00,29.5,29.0,29.31,NE,37,1.0,5.0,98,0.00,,OVC004,0.00,VWS V14.01,2013-02-11 04:09:00,
2013-02-10 22:14:00,29.5,29.0,29.31,North,5,2.0,5.0,98,0.00,,OVC004,0.00,VWS V14.01,2013-02-11 04:14:00,
2013-02-10 22:19:00,29.6,29.1,29.31,North,359,2.0,5.0,98,0.00,,OVC004,0.00,VWS V14.01,2013-02-11 04:19:00,
2013-02-10 22:24:00,29.6,29.1,29.31,NE,39,1.0,5.0,98,0.00,,OVC004,0.00,VWS V14.01,2013-02-11 04:24:00,
2013-02-10 22:29:00,29.6,29.1,29.31,NNE,22,1.0,3.0,98,0.00,,OVC004,0.00,VWS V14.01,2013-02-11 04:29:00,
2013-02-10 22:34:00,29.6,29.1,29.31,NNE,26,2.0,4.0,98,0.00,,OVC004,0.00,VWS V14.01,2013-02-11 04:34:00,
2013-02-10 22:39:00,29.6,29.1,29.31,NW,321,0.0,4.0,98,0.00,,OVC004,0.00,VWS V14.01,2013-02-11 04:39:00,
2013-02-10 22:44:00,29.6,29.1,29.31,NNE,22,1.0,5.0,98,0.00,,OVC004,0.00,VWS V14.01,2013-02-11 04:44:00,
2013-02-10 22:49:00,29.6,29.1,29.31,North,9,1.0,5.0,98,0.00,,OVC004,0.00,VWS V14.01,2013-02-11 04:49:00,
2013-02-10 22:54:00,29.6,29.1,29.31,NNE,19,1.0,5.0,98,0.00,,OVC004,0.00,VWS V14.01,2013-02-11 04:54:00,
2013-02-10 22:59:00,29.7,29.2,29.31,NE,43,1.0,3.0,98,0.00,,OVC004,0.00,VWS V14.01,2013-02-11 04:59:00,
2013-02-10 23:00:00,29.7,29.2,29.31,NNE,29,2.0,3.0,98,0.00,,OVC004,0.00,VWS V14.01,2013-02-11 05:00:00,
2013-02-10 23:05:00,29.7,29.2,29.31,WNW,285,1.0,5.0,98,0.00,,OVC004,0.00,VWS V14.01,2013-02-11 05:05:00,
2013-02-10 23:10:00,29.7,29.2,29.31,North,359,1.0,5.0,98,0.00,,OVC004,0.00,VWS V14.01,2013-02-11 05:10:00,
2013-02-10 23:15:00,29.8,29.3,29.31,North,349,2.0,5.0,98,0.00,,OVC004,0.00,VWS V14.01,2013-02-11 05:15:00,
2013-02-10 23:20:00,29.8,29.3,29.31,NNW,329,1.0,5.0,98,0.00,,OVC004,0.00,VWS V14.01,2013-02-11 05:20:00,
2013-02-10 23:25:00,29.8,29.3,29.31,NNW,333,0.0,6.0,98,0.00,,OVC004,0.00,VWS V14.01,2013-02-11 05:25:00,
2013-02-10 23:30:00,29.8,29.3,29.31,North,356,1.0,4.0,98,0.00,,OVC004,0.00,VWS V14.01,2013-02-11 05:30:00,
2013-02-10 23:35:00,29.9,29.4,29.32,NE,50,0.0,5.0,98,0.00,,OVC006,0.00,VWS V14.01,2013-02-11 05:35:00,
2013-02-10 23:40:00,29.9,29.4,29.32,West,278,1.0,5.0,98,0.00,,OVC006,0.00,VWS V14.01,2013-02-11 05:40:00,
2013-02-10 23:45:00,30.0,29.5,29.32,NW,316,2.0,5.0,98,0.00,,OVC006,0.00,VWS V14.01,2013-02-11 05:45:00,
2013-02-10 23:50:00,30.0,29.5,29.32,NNW,345,2.0,5.0,98,0.00,,OVC006,0.00,VWS V14.01,2013-02-11 05:50:00,
2013-02-10 23:55:00,30.0,29.5,29.32,North,349,0.0,5.0,98,0.00,,OVC006,0.00,VWS V14.01,2013-02-11 05:55:00,